STARLINK-1139 (45065 NORAD) Tracking and Keplerian Element Data

This shows tracking and keplerian element data for the satellite.

Feedback or suggestion? Click here.




ElementValue
Catalog45065
NameSTARLINK-1139
Epoch Orbit177
Epoch Day52.91667824
Epoch Year2020
RAAN119.4718
Inclination52.9959
Eccentricity0.0001293
Argument of Perigee40.4588
Mean Anonmoly123.5801
Mean Motion15.73165959
Decay Rate0.00217858
L11 45065U 20006X 20052.91667824 .00217858 00000-0 15186-2 0 9994
L22 45065 52.9959 119.4718 0001293 40.4588 123.5801 15.73165959 1772

Live tracking and technical data element details for STARLINK-1139 (NORAD 45065). STARLINK-1139 can be tracked NOW for your location showing map with azimuth and elevation plus other details from your city location.

Track the satellite on the map from your city or location and see movement details for azimuth, elevation, latitude, longitude, range, height, and movement on the map or in text.







IsCatalogInMostPopularTable: catalog: 45065, numindb: 7
Update: records affected: 1



GetName: 45065 STARLINK-1139

Hit Count: updated at: Wed, 26 Feb 2020 15:17:13 GMT